Powrót do katalogu

FREGAT R/B

AktywnyHEO
NORAD 28133·ROCKET BODY·🇷🇺 Russia

Wystrzelony Dec 27, 2003 z Baikonur Cosmodrome

Loading…

Następne Przeloty (najbliższe 24 godziny)

TLE

ŚwieżeSource: Space-Track

Epoka: Sep 14, 2026, 00:58 UTC

1 28133U 03059B   26257.04044278  .00000128  00000-0  00000-0 0  9996
2 28133  22.9225 246.8301 5958899  34.5161 352.6851  2.01464472167226

Śledź FREGAT R/B w czasie rzeczywistym z AllMySat

Download on the App Store